Location: *
(45.2167°N, 10.8833°E)
Time: 10:15:41
(UTC+00:00)

Daily predictions for brighter satellites

Satellite Brightness Start Highest point End
(mag) Time Altitude Azimuth Time Altitude Azimuth Time Altitude Azimuth
NOSS 2-1 (D) 3.8 18:06:28 10° SW 18:09:48 55° NW 18:13:25 10° NNE
STARLINK-1212 2.8 18:06:53 10° SW 18:09:59 72° SE 18:13:07 10° ENE
COSMOS 2428 4.0 18:04:33 10° SW 18:10:02 46° WNW 18:15:33 10° NNE
STARLINK-1105 2.8 18:07:20 10° SW 18:10:26 72° SE 18:13:35 10° ENE
STARLINK-1239 3.9 18:06:46 10° SSW 18:10:37 46° SE 18:14:28 10° ENE
STARLINK-1206 2.8 18:07:49 10° SW 18:10:54 73° SE 18:14:02 10° ENE
ISS -2.0 18:08:17 10° WNW 18:11:10 26° N 18:14:04 10° ENE
STARLINK-1126 4.1 18:07:18 10° NW 18:11:13 48° NNE 18:15:09 10° E
STARLINK-1247 2.8 18:08:15 10° SW 18:11:21 74° SE 18:14:28 10° ENE
Cosmos 2369 Rocket 4.0 18:08:05 10° N 18:11:34 16° NE 18:15:01 10° E
SJ-6B 4.1 18:08:14 10° ESE 18:11:34 25° ENE 18:14:57 10° NNE
STARLINK-1227 2.8 18:08:40 10° SW 18:11:47 74° SE 18:14:55 10° ENE
STARLINK-1218 2.8 18:09:10 10° SW 18:12:15 75° SE 18:15:22 10° ENE
CZ-2C R/B 3.6 18:07:59 10° SE 18:12:35 37° ENE 18:17:02 10° N
STARLINK-1226 2.8 18:09:37 10° SW 18:12:43 76° SE 18:15:51 10° ENE
Cosmos 304 Rocket 4.0 18:08:21 10° NNW 18:13:02 50° ENE 18:17:40 10° SE
STARLINK-1254 2.8 18:10:01 10° SW 18:13:07 76° SSE 18:16:16 10° ENE
STARLINK-1215 2.8 18:10:31 10° SW 18:13:37 77° SSE 18:16:44 10° ENE
STARLINK-1231 2.8 18:10:57 10° SW 18:14:03 78° SE 18:17:10 10° ENE
Cosmos 1048 Rocket 4.0 18:09:34 10° SSW 18:14:42 88° ESE 18:19:55 10° NNE
STARLINK-1232 2.8 18:11:51 10° SW 18:14:58 79° SE 18:18:05 10° ENE
STARLINK-1240 3.8 18:11:18 10° SW 18:15:11 50° SE 18:19:05 10° ENE
STARLINK-1217 2.8 18:12:18 10° SW 18:15:25 80° SE 18:18:33 10° ENE
STARLINK-1082 4.0 18:11:51 10° NW 18:15:48 50° NNE 18:19:45 10° ESE
STARLINK-1208 2.8 18:12:43 10° SW 18:15:51 81° SE 18:19:00 10° ENE
STARLINK-1229 2.8 18:13:12 10° SW 18:16:18 81° SSE 18:19:25 10° ENE
STARLINK-1271 2.8 18:13:39 10° SW 18:16:46 82° SSE 18:19:54 10° ENE
Meteor 1-22 Rocket 4.3 18:11:44 10° SSE 18:16:48 48° E 18:21:51 10° NNE
STARLINK-1270 2.8 18:14:07 10° SW 18:17:13 83° SSE 18:20:21 10° ENE
STARLINK-1154 2.8 18:14:33 10° SW 18:17:39 84° SE 18:20:47 10° ENE
Resurs 01 Rocket 3.6 18:16:13 10° E 18:18:11 13° ENE 18:20:10 10° NNE
STARLINK-1197 2.8 18:15:27 10° SW 18:18:34 85° SE 18:21:41 10° ENE
Cosmos 1939 Rocket 4.1 18:14:49 10° S 18:18:39 45° W 18:22:27 10° NNW
STARLINK-1189 2.8 18:15:54 10° SW 18:19:01 86° SE 18:22:08 10° ENE
STARLINK-1216 3.7 18:15:53 10° SW 18:19:47 54° SE 18:23:44 10° ENE
STARLINK-1187 2.9 18:16:44 10° WSW 18:19:52 83° NW 18:23:01 10° ENE
STARLINK-1188 2.8 18:16:48 10° SW 18:19:55 87° SSE 18:23:02 10° ENE
STARLINK-1198 2.8 18:17:03 10° SW 18:20:10 88° SE 18:23:17 10° ENE
STARLINK-1100 3.9 18:16:24 10° NW 18:20:22 53° NNE 18:24:11 11° ESE
STARLINK-1235 3.1 18:17:26 10° WSW 18:20:34 73° NNW 18:23:44 10° NE
Cosmos 494 Rocket 4.0 18:16:01 10° S 18:21:02 59° ESE 18:26:10 10° NNE
Abrixas rocket 4.2 18:21:00 10° SSE 18:21:48 11° SE 18:22:34 10° ESE
STARLINK-1199 2.8 18:18:44 10° WSW 18:21:52 89° N 18:25:01 10° ENE
Cosmos 371 Rocket 3.8 18:17:15 10° NNW 18:22:03 65° WSW 18:26:49 10° S
Cosmos 1733 3.3 18:18:26 10° S 18:22:03 48° E 18:25:43 10° NNE
STARLINK-1191 2.9 18:19:12 10° WSW 18:22:19 89° NW 18:25:29 10° ENE
CZ-4C R/B 4.4 18:18:09 10° WNW 18:22:31 23° NNW 18:27:31 10° NNE
STARLINK-1210 2.9 18:19:39 10° WSW 18:22:46 88° NW 18:25:55 10° ENE
USA 81 4.0 18:17:57 10° N 18:23:13 69° E 18:28:28 10° SSE
STARLINK-1221 2.9 18:20:06 10° WSW 18:23:14 87° NNW 18:26:23 10° ENE
STARLINK-1219 2.9 18:20:33 10° WSW 18:23:41 87° NNW 18:26:50 10° ENE
STARLINK-1222 2.9 18:20:59 10° WSW 18:24:07 86° NNW 18:27:16 10° ENE
STARLINK-67 3.6 18:21:40 10° W 18:24:08 41° NNW 18:26:38 10° NE
STARLINK-1237 3.6 18:20:29 10° SW 18:24:26 59° SE 18:28:24 10° ENE
FREGAT/IRIS 3.1 18:22:02 10° SE 18:24:30 33° ENE 18:27:02 10° N
STARLINK-1211 2.9 18:21:27 10° WSW 18:24:34 85° NNW 18:27:43 10° ENE
STARLINK-1083 3.9 18:21:00 10° NW 18:24:59 56° NNE 18:28:36 12° ESE
STARLINK-1214 2.9 18:21:54 10° WSW 18:25:01 85° NW 18:28:11 10° ENE
SPOT 3 Rocket 4.5 18:20:58 10° SE 18:25:27 30° ENE 18:29:57 10° N
STARLINK-1245 2.9 18:22:23 10° WSW 18:25:30 84° NNW 18:28:38 10° ENE
STARLINK-1238 2.9 18:22:49 10° WSW 18:25:56 83° NNW 18:29:05 10° ENE
Cosmos 1709 Rocket 4.3 18:20:05 10° N 18:26:04 46° ENE 18:31:56 10° SSE
STARLINK-1205 2.9 18:23:45 10° WSW 18:26:52 82° NNW 18:30:00 10° ENE
STARLINK-1204 2.9 18:24:11 10° WSW 18:27:18 81° NNW 18:30:25 10° NE
Cosmos 1331 Rocket 4.0 18:22:17 10° NNW 18:27:27 68° ENE 18:32:33 10° SSE
Cosmos 2219 Rocket 4.2 18:23:18 10° WSW 18:28:20 32° NW 18:33:24 10° N
Cosmos 1674 2.9 18:24:55 10° NNW 18:28:41 71° W 18:32:23 10° S
STARLINK-1202 3.5 18:25:03 10° SW 18:29:02 64° SE 18:33:01 10° ENE
STARLINK-1125 3.8 18:25:36 10° NW 18:29:37 60° NNE 18:33:02 14° ESE
Orbus 7S? 3.5 18:27:16 10° WNW 18:30:05 40° SW 18:32:23 10° SSE
SL-14 R/B 3.7 18:26:37 10° N 18:30:30 42° ENE 18:34:20 10° SSE
KORONAS-FOTON 4.1 18:27:59 10° NNW 18:31:49 72° W 18:35:35 10° S
STARLINK-1109 3.7 18:29:53 10° NW 18:33:55 63° NNE 18:37:10 15° ESE
STARLINK-1246 3.5 18:29:59 10° SW 18:34:01 70° SE 18:38:03 10° ENE
MONITOR-E 4.0 18:34:04 10° SSE 18:36:37 46° ENE 18:39:11 10° N
Cosmos 1980 4.3 18:32:02 10° SW 18:37:39 62° WNW 18:43:19 10° NNE
Cosmos 1943 Rocket 3.3 18:33:02 10° N 18:37:43 27° NE 18:41:18 15° E
Cosmos 1766 3.5 18:33:46 10° SSW 18:37:45 74° W 18:41:45 10° N
STARLINK-1091 3.7 18:34:33 10° NW 18:38:36 67° NNE 18:41:39 17° ESE
S3M 4.2 18:33:12 10° S 18:39:34 84° W 18:46:01 10° N
Ariane Rocket 3.0 18:36:05 10° SSE 18:41:10 90° NE 18:46:16 10° NNW
STARLINK-1224 3.5 18:38:56 10° SW 18:42:57 80° SE 18:47:00 10° ENE
BREEZE-M DEB (TANK) 4.0 18:32:19 10° WNW 18:44:13 52° SW 18:47:18 12° SSE
Cosmos 1455 Rocket 3.0 18:40:22 10° S 18:44:41 86° E 18:49:04 10° N
STARLINK-1225 3.5 18:43:37 10° SW 18:47:40 86° SE 18:51:43 10° ENE
Cosmos 1110 Rocket 4.2 18:43:03 10° NNW 18:48:18 73° WSW 18:53:29 10° SSE
STARLINK-1203 3.5 18:45:39 10° WSW 18:49:35 86° NW 18:53:33 10° ENE
SL-16 R/B 2.2 18:45:29 10° S 18:51:03 63° ESE 18:56:39 10° NNE
STARLINK-1072 3.5 18:47:44 10° WNW 18:51:46 82° NE 18:54:14 22° ESE
Cosmos 1892 Rocket 4.3 18:47:25 10° NNW 18:51:50 57° W 18:56:12 10° S
STARLINK-1230 3.5 18:48:15 10° WSW 18:52:17 88° NW 18:56:21 10° ENE
Cosmos 1626 Rocket 3.7 18:49:10 10° N 18:53:29 52° ENE 18:57:13 13° SSE
USA 186 1.9 18:50:13 10° S 18:53:39 85° WSW 18:57:05 10° NNW
ARGOS Delta rocket 4.3 18:49:38 10° S 18:54:41 72° W 19:00:02 10° NNW
Cosmos 1953 3.4 18:53:53 22° ESE 18:54:42 24° E 18:57:55 10° NE
STARLINK-1234 4.1 18:52:52 10° W 18:55:42 37° NNW 18:58:25 11° NE
STARLINK-1096 3.5 18:52:12 10° WNW 18:56:13 87° NNE 18:58:31 24° ESE
Cosmos 1626 2.0 18:52:41 10° N 18:56:24 81° E 19:00:06 10° S
STARLINK-1243 3.6 18:52:57 10° WSW 18:56:59 83° NNW 19:00:53 11° ENE
Okean 1-7 Rocket 4.3 18:55:26 10° NNW 18:59:44 54° W 19:04:00 10° S
Aureole 3 4.1 18:57:25 18° SE 18:59:52 35° E 19:04:18 10° NNE
STARLINK-1079 3.5 18:56:41 10° WNW 19:00:41 88° SSW 19:02:49 27° SE
Cosmos 1602 Rocket 3.8 18:56:42 10° N 19:01:03 49° ENE 19:03:54 20° SE
STARLINK-1236 3.6 18:57:37 10° WSW 19:01:39 78° NNW 19:05:23 12° NE
STARLINK-1116 3.5 19:01:09 10° WNW 19:05:10 82° SW 19:07:08 29° SE
ATLAS 2AS CENTAUR R/B 4.3 18:58:48 10° NNW 19:05:11 27° NNE 19:10:15 13° ENE
H-2A R/B 2.4 19:00:11 10° S 19:05:30 69° WSW 19:10:43 10° NNW
DMSP B5D2-2 4.3 19:01:34 10° NNE 19:06:33 44° E 19:11:30 10° S
STARLINK-1111 4.5 19:06:29 10° NW 19:10:26 40° NNE 19:12:19 25° ENE
Aureole 2 Rocket 3.8 19:07:39 10° N 19:10:30 23° ENE 19:10:31 23° ENE
STARLINK-1269 3.8 19:07:03 10° WSW 19:11:05 68° NNW 19:14:25 15° NE
Cosmos 1544 Rocket 4.0 19:07:47 10° SSW 19:12:09 65° W 19:16:34 10° N
STARLINK-1094 3.6 19:10:08 10° WNW 19:14:08 71° SW 19:15:46 34° SE
USA 234 3.2 19:08:26 10° NE 19:15:01 79° SE 19:21:34 10° SW
STARLINK-1073 4.4 19:11:28 10° NW 19:15:26 42° NNE 19:17:06 28° ENE
STARLINK-1200 3.9 19:11:46 10° WSW 19:15:47 64° NNW 19:18:56 16° NE
Cosmos 2297 3.9 19:10:29 10° NNW 19:16:10 75° WSW 19:20:56 15° SSE
CZ-2C R/B 3.7 19:11:23 10° NNE 19:16:10 75° ESE 19:20:51 10° S
STARLINK-1117 3.7 19:14:39 10° WNW 19:18:39 66° SW 19:20:07 36° SSE
Cosmos 1825 Rocket 4.4 19:16:25 10° N 19:20:23 31° ENE 19:20:41 31° E
STARLINK-1192 4.0 19:16:26 10° WSW 19:20:26 60° NNW 19:23:24 17° NE
STARLINK-1121 4.3 19:16:27 10° NW 19:20:27 44° NNE 19:21:53 31° ENE
Cosmos 2237 Rocket 4.0 19:16:36 10° WSW 19:21:38 33° NW 19:26:42 10° N
STARLINK-1078 3.8 19:19:09 10° WNW 19:23:08 61° SW 19:24:26 38° SSE
STARLINK-1244 4.1 19:21:15 10° WSW 19:25:14 56° NNW 19:28:01 19° NE
STARLINK-1106 4.2 19:21:25 10° NW 19:25:27 47° NNE 19:26:39 35° ENE
Cosmos 1302 Rocket 4.2 19:20:36 10° NNW 19:25:52 73° WSW 19:29:43 19° S
STARLINK-1108 3.9 19:23:42 10° WNW 19:27:39 56° SW 19:28:47 40° SSE
CZ-2C R/B 2.5 19:23:06 10° NNE 19:28:14 57° E 19:32:38 14° S
Cosmos 1992 Rocket 4.3 19:23:58 10° NNW 19:29:03 49° ENE 19:30:33 38° ESE
Cosmos 2184 Rocket 4.1 19:23:04 10° N 19:29:18 55° ENE 19:32:14 30° SE
Cosmos 1758 Rocket 3.8 19:25:31 10° N 19:29:44 44° ENE 19:30:08 43° E
STARLINK-1138 4.2 19:25:59 10° WSW 19:29:57 53° NNW 19:32:32 20° NE
STARLINK-1112 4.1 19:26:24 10° NW 19:30:27 49° NNE 19:31:27 40° ENE
STARLINK-1066 4.4 19:29:10 10° WNW 19:31:54 27° SW 19:32:18 26° SSW
STARLINK-1071 4.0 19:28:14 10° WNW 19:32:09 52° SW 19:33:08 40° S
STARLINK-1081 4.4 19:29:38 10° WNW 19:32:20 26° SW 19:32:41 26° SSW
STARLINK-1070 4.5 19:30:06 10° WNW 19:32:47 26° SW 19:33:06 26° SSW
STARLINK-1124 4.1 19:29:08 10° WNW 19:33:10 52° SW 19:34:14 40° S
STARLINK-1069 4.5 19:30:31 10° WNW 19:33:12 26° SW 19:33:34 26° SSW
STARLINK-1085 4.5 19:30:58 10° WNW 19:33:40 26° SW 19:34:00 25° SSW
ARGOS 4.1 19:28:29 10° S 19:33:41 47° W 19:38:54 10° NNW
STARLINK-1143 4.3 19:30:48 10° WSW 19:34:45 50° NNW 19:37:08 22° NE
Cosmos 2251 Rocket 3.6 19:30:07 10° S 19:35:19 54° ESE 19:40:34 10° NNE
STARLINK-1128 4.0 19:31:24 10° NW 19:35:28 52° NNE 19:36:15 45° ENE
SL-8 R/B 4.0 19:31:35 10° WNW 19:36:19 60° N 19:38:02 37° ENE
STARLINK-1110 4.1 19:32:46 10° WNW 19:36:39 48° SW 19:37:29 41° S
SL-24 R/B 4.2 19:33:24 10° N 19:38:04 73° WNW 19:42:07 10° SSW
STARLINK-1113 3.9 19:36:22 10° NW 19:40:27 55° NNE 19:41:02 50° ENE
Cosmos 1470 3.8 19:37:20 10° SSW 19:41:03 45° WNW 19:44:49 10° N
Cosmos 1606 Rocket 4.4 19:43:16 35° NE 19:43:16 35° NE 19:46:22 10° NNE
STARLINK-1119 3.8 19:41:20 10° NW 19:45:26 59° NNE 19:45:48 56° NE
STARLINK-1122 4.3 19:41:59 10° WNW 19:45:47 41° SW 19:46:17 39° SSW
MetOp-A 4.5 19:42:29 19° S 19:46:23 64° WSW 19:51:44 10° NNW
Resurs 1-3 3.9 19:44:44 31° S 19:46:43 64° W 19:51:06 10° NNW
ERS-1 Rocket 4.2 19:48:48 26° ENE 19:48:48 26° ENE 19:52:37 10° N
ISS -2.8 19:45:18 10° NW 19:48:11 41° N 19:48:11 41° N
Cosmos 2154 Rocket 4.2 19:43:59 10° N 19:50:11 51° ENE 19:51:33 44° ESE
STARLINK-1126 4.5 19:46:38 10° WNW 19:50:23 38° SW 19:50:45 37° SSW
STARLINK-1114 3.7 19:46:20 10° NW 19:50:27 63° NNE 19:50:36 62° NE
USA 245 4.3 19:50:07 46° E 19:50:29 47° ENE 19:55:56 10° N
BREEZE-M DEB (TANK) 3.6 19:47:37 10° WNW 19:53:08 57° NNE 19:53:10 57° NNE
BREEZE M DEB (TANK) 3.8 19:43:54 10° SW 19:53:42 50° SSE 19:53:49 50° SSE
Resurs 01 Rocket 1.6 19:53:05 53° S 19:54:03 77° WSW 19:58:30 10° NNW
SPOT 5 4.4 19:56:05 19° NE 19:56:05 19° NE 19:58:13 10° NNE
STARLINK-1130 (DARKSAT) 3.7 19:51:17 10° NW 19:55:22 67° NNE 19:55:22 67° NNE
Cosmos 2369 Rocket 2.1 19:50:53 10° NNW 19:56:37 76° ENE 19:57:50 56° SE
Cosmos 967 Rocket 4.5 19:53:49 10° SSW 20:00:05 57° ESE 20:06:25 10° NE
Cosmos 2263 4.2 19:54:44 10° NNW 20:00:19 60° ENE 20:00:59 56° E
STARLINK-1084 3.7 19:56:15 10° NW 20:00:09 69° N 20:00:09 69° N
STARLINK-1098 3.8 20:01:13 10° NW 20:04:55 67° NNW 20:04:55 67° NNW
Cosmos 1726 3.0 20:06:30 44° N 20:06:30 44° N 20:09:12 10° N
Landsat 7 4.3 20:06:34 48° NE 20:06:34 48° NE 20:10:36 10° N
Nadezhda 1 Rocket 3.9 20:06:17 47° SSE 20:08:11 71° E 20:14:34 10° NNE
Cosmos 2228 3.8 20:11:03 41° NNE 20:11:03 41° NNE 20:13:56 10° NNE
STARLINK-1123 4.0 20:06:13 10° WNW 20:09:44 62° NW 20:09:44 62° NW
MOS 1 Rocket 4.2 20:08:04 10° N 20:13:10 57° WNW 20:18:26 10° SSW
STARLINK-1097 4.2 20:11:11 10° WNW 20:14:29 56° NW 20:14:29 56° NW
Cosmos 1943 3.3 20:19:28 58° ENE 20:19:28 58° ENE 20:24:09 10° NNE
Cosmos 292 Rocket 4.2 20:14:04 10° NNW 20:18:45 55° WSW 20:19:06 54° SW
STARLINK-1099 4.4 20:16:10 10° WNW 20:19:17 50° WNW 20:19:17 50° WNW
Cosmos 1943 Rocket 2.7 20:16:23 10° NW 20:21:45 53° WSW 20:22:51 46° SSW
Cosmos 2074 Rocket 4.4 20:17:52 10° NNW 20:24:00 59° W 20:26:45 33° SSW
NOSS 3-4 (A) 4.3 20:17:58 10° NNW 20:24:36 47° NE 20:25:57 43° ENE
NOSS 3-4 (C) 4.3 20:18:03 10° NNW 20:24:41 47° NE 20:26:03 42° ENE
Cosmos 1953 4.3 20:29:29 21° WSW 20:31:01 27° WNW 20:34:25 10° NNW
SPOT 1/Viking Rocket 3.7 20:32:06 66° NNE 20:32:06 66° NNE 20:36:41 10° N
NOSS 3-3 (A) 3.9 20:27:12 10° SW 20:33:02 84° NW 20:39:41 10° NE
Spot 2 Rocket 3.7 20:33:07 67° W 20:33:07 67° W 20:38:12 10° NNW
NOSS 3-3 (C) 3.8 20:27:18 10° SW 20:33:09 85° NW 20:39:47 10° NE
SL-16 R/B 4.4 20:31:03 10° WSW 20:35:38 25° NW 20:40:13 10° N
Terra 3.3 20:49:36 30° NNE 20:49:36 30° NNE 20:52:13 10° N
Cosmos 2341 Rocket 4.0 20:47:56 10° N 20:53:51 78° N 20:53:51 78° N
Cosmos 1603 4.5 20:53:25 22° WSW 20:56:48 49° WNW 21:02:16 10° NNE
ATLAS 2AS CENTAUR R/B 2.8 20:49:57 10° NW 20:57:36 71° NE 20:57:42 71° NE
USA 234 4.2 20:51:38 10° NE 20:57:45 44° NNW 21:03:52 10° W
Aureole 1 Rocket 4.3 21:07:14 79° SW 21:07:41 84° WNW 21:14:27 10° NNE
COSMOS 2455 3.7 21:06:33 10° NNW 21:11:09 42° NNE 21:11:09 42° NNE
Cosmos 2369 Rocket 4.4 21:36:25 10° WNW 21:39:39 17° W 21:39:39 17° W
CZ-4C R/B 4.5 21:59:14 10° NNW 22:04:41 25° NNE 22:06:33 23° NE
Cosmos 1980 Rocket 4.3 22:48:41 10° NNW 22:50:54 21° N 22:50:54 21° N
